Regional Weather Roundup
Issued by NWS

Home | Current Version | Previous Version | Graphics & Text | Print | Product List | Glossary Off
Versions: 1 2 3 4 5 6 7 8 9 10 11 12 13 14 15 16 17 18 19 20 21 22 23 24 25 26 27 28 29 30 31 32 33 34 35 36 37 38 39 40 41 42 43 44 45 46 47 48 49 50

000
ASUS43 KDTX 201001
RWRMI
MICHIGAN HOURLY REGIONAL WEATHER ROUNDUP
NATIONAL WEATHER SERVICE DETROIT/PONTIAC MI
600 AM EDT SAT SEP 20 2014

NOTE: "FAIR" INDICATES FEW OR NO CLOUDS BELOW 12,000 FEET WITH NO
SIGNIFICANT WEATHER AND/OR OBSTRUCTION TO VISIBILITY.

MIZ047>049-052>055-059>063-066>070-074>076-081>083-201100-
SOUTHEAST LOWER MICHIGAN

CITY           SKY/WX    TMP DP  RH WIND       PRES   REMARKS
ADRIAN         CLEAR     50  45  83 SW3       30.02R
ALMA           CLEAR     56  49  78 S10       29.91S
ANN ARBOR      FOG       44  41  89 S3        30.00R VSB 1
BAD AXE        PTCLDY    56  51  82 S9        29.93R
CARO           PTCLDY    58  49  73 SW8       29.92S
DETROIT CITY   PTCLDY    60  49  66 SW9       29.99R
DETROIT        PTCLDY    52  47  83 S6        30.01R
FLINT          CLOUDY    61  48  62 SW12      29.96R
GROSSE ILE     CLEAR     61  50  67 SW7       30.00R
HILLSDALE      CLEAR     57  51  79 SW6       30.00R
HOWELL         CLEAR     56  48  72 SW7       29.97S

CITY           SKY/WX    TMP DP  RH WIND       PRES   REMARKS
JACKSON        PTCLDY    60  49  66 SW9       29.98R
LAMBERTVILLE   CLEAR     55  46  71 SW7       30.02R
LANSING        CLOUDY    58  48  69 S10       29.96R THUNDER
LAPEER         CLOUDY    58  47  67 SW10      29.96S
MASON          PTCLDY    55  48  76 CALM      29.97R
MONROE         CLEAR     55  48  76 SW5       30.00R
MT. CLEMENS    MOCLDY    54  54 100 S2        29.98R
PONTIAC        PTCLDY    58  46  64 SW6       29.98S
PORT HOPE        N/A     60  48  64 SW10G18   29.89S
PORT HURON     MOCLDY    54  54 100 S3        29.99R
TRI CITIES     PTCLDY    59  49  69 S12       29.91R
TROY           PTCLDY    56  49  77 SW6       30.01R
SAGINAW HB     MOCLDY    61  46  59 SW14G20   29.91R
$$
MIZ043>046-050>051-056>058-064>065-071>073-077>080-201100-
SOUTHWEST LOWER MICHIGAN

CITY           SKY/WX    TMP DP  RH WIND       PRES   REMARKS
BATTLE CREEK   PTCLDY    58  49  72 SW12      29.98R
BENTON HARBOR  MOCLDY    60  51  72 S9G17     29.95R
BIG RAPIDS     CLOUDY    61  55  79 SW13G23   29.86F
COLDWATER      MOCLDY    59  51  75 SW7       29.99R
FREMONT        PTSUNNY   64  53  67 SW16G22   29.86F
HOLLAND        MOCLDY    66  55  67 SW15      29.93S
GRAND RAPIDS   MOCLDY    62  51  67 SW13      29.93S
IONIA          PTSUNNY   59  50  70 SW12      29.92S
KALAMAZOO      PTCLDY    56  49  77 S8        29.98R
LUDINGTON      CLOUDY    64  56  75 SW20G29   29.82S
MARSHALL       PTCLDY    57  49  74 SW7       29.98R
MOUNT PLEASANT CLEAR     57  49  75 S7        29.87F
MUSKEGON       CLOUDY    66  55  67 S17G29    29.89F
SOUTH HAVEN    MOCLDY    64  53  66 SW12G18   29.94S
$$
MIZ016>042-201100-
NORTHERN LOWER MICHIGAN

CITY           SKY/WX    TMP DP  RH WIND       PRES   REMARKS
ALPENA         CLOUDY    59  48  67 S8        29.79S
BEAVER ISLAND  CLOUDY    64  55  72 SW17G26   29.71R
BELLAIRE       CLOUDY    66  51  57 S8        29.76S
CADILLAC       CLOUDY    60  53  76 SW13      29.83S
CHARLEVOIX     RAIN      65  54  67 S13       29.77R
FRANKFORT      RAIN      63  56  79 S14G22    29.78S
GAYLORD        CLOUDY    60  48  64 SW15      29.78F
GRAYLING       CLOUDY    59  49  68 S6        29.82F
HARBOR SPRINGS CLOUDY    64  53  67 CALM      29.74S
HOUGHTON LAKE  CLOUDY    56  49  77 VRB7      29.85F
MANISTEE       CLOUDY    63  54  72 S10       29.80F THUNDER
OSCODA         CLOUDY    58  49  72 SW15      29.85S
PELLSTON       CLOUDY    65  52  62 SW10G23   29.73F
ROGERS CITY    CLOUDY    63  52  67 SW12      29.76F
TRAVERSE CITY  LGT RAIN  67  52  58 SW12G23   29.75F
$$
MIZ007>008-015-201100-
EASTERN UPPER MICHIGAN

CITY           SKY/WX    TMP DP  RH WIND       PRES   REMARKS
KINROSS        CLOUDY    61  57  88 S6        29.70F
MACKINAC ISLAN CLOUDY    63  54  73 SW9G18    29.72S
NEWBERRY       CLOUDY    60  53  78 SW14G21   29.67F
S. S. MARIE    CLOUDY    57  54  89 E6        29.70F
$$
MIZ004>006-011>014-085-201100-
CENTRAL UPPER MICHIGAN

CITY           SKY/WX    TMP DP  RH WIND       PRES   REMARKS
MANISTIQUE     CLOUDY    58  54  86 SW13      29.68S
ESCANABA       CLOUDY    61  54  77 S8        29.66F
MENOMINEE      CLOUDY    61  57  88 SW10G16   29.70R
SAWYER-GWINN   CLOUDY    59  54  84 S7        29.63F
$$
MIZ001>003-009>011-084-201100-
WESTERN UPPER MICHIGAN

CITY           SKY/WX    TMP DP  RH WIND       PRES   REMARKS
IRON MOUNTAIN  CLOUDY    62  57  83 S7        29.64F
HOUGHTON       CLOUDY    61  57  87 SE5       29.56F
COPPER HARBOR    N/A     61  59  93 CALM      29.56F
IRONWOOD       CLOUDY    66  64  94 SW8       29.57S
$$

ABBREVIATIONS USED IN REMARKS
   TC - TEMPERATURE IN CELSIUS
  WCI - WIND CHILL INDEX
   HX - HEAT INDEX
  VSB - VISIBILITY




USA.gov is the U.S. government's official web portal to all federal, state and local government web resources and services.